Theta_e
313 312 311 312 312 313 313 313 311 309 308 305 306 307 308 307 306 311 314 316 317 317 318 327 329 333 339 344 349 353 364 365 362 365 367 360 362 358 357 354 353 352 347 345 344
316 315 315 311 309 311 312 312 310 311 308 305 305 307 309 309 316 316 318 317 316 315 331 332 337 340 340 345 348 360 363 363 356 359 363 359 357 359 358 356 356 347 345 344 344
316 316 315 314 313 311 312 312 312 309 309 305 305 308 309 312 322 321 324 317 316 313 331 335 337 337 342 344 347 358 364 359 359 357 356 359 361 359 360 360 354 348 346 345 344
316 315 314 315 314 313 312 313 312 309 307 305 305 308 309 319 336 330 318 316 312 315 333 335 334 336 343 344 344 357 354 355 357 355 356 359 357 361 360 358 348 346 345 345 344
315 315 315 314 313 313 314 311 311 310 307 304 306 308 318 323 323 328 320 318 313 318 334 335 331 333 337 335 337 352 352 355 353 355 355 354 356 360 360 354 349 346 345 345 343
314 314 314 313 315 313 314 313 311 308 306 304 307 309 320 327 326 327 322 317 315 324 335 332 329 330 331 331 334 346 350 351 354 354 352 354 355 352 358 353 354 348 346 345 343
312 313 314 314 314 313 312 310 310 306 305 304 308 317 323 324 327 327 323 318 319 329 333 330 329 329 328 331 334 347 349 347 355 353 355 352 359 359 359 355 356 349 346 344 342
312 313 313 314 313 312 310 312 311 309 304 305 308 320 326 322 324 327 324 320 323 329 329 327 327 326 328 330 337 344 348 351 356 355 354 353 364 357 356 357 355 348 345 344 343
313 313 313 313 313 311 312 311 311 309 306 308 317 323 329 324 326 326 324 323 324 327 326 325 325 325 327 330 337 346 350 349 350 352 357 357 365 357 355 358 352 348 345 344 344
314 313 313 313 311 310 313 318 314 312 312 318 325 327 328 326 325 327 325 324 325 326 326 325 324 325 327 332 338 344 347 348 350 354 358 361 362 357 354 357 352 348 346 345 346
313 313 312 312 310 311 317 323 326 329 325 328 327 329 329 324 325 325 324 323 324 325 326 325 324 324 326 330 336 339 343 347 347 357 358 358 360 356 354 360 352 348 347 346 347
313 312 312 310 311 312 314 325 321 322 322 324 324 324 324 325 325 325 325 324 322 324 325 325 323 325 326 330 331 334 342 346 356 355 357 358 357 356 356 357 357 350 348 349 348
312 310 310 311 313 313 319 322 318 319 320 323 322 323 324 325 327 325 325 326 326 324 324 326 324 324 326 328 330 333 339 342 364 351 348 354 358 352 353 350 354 353 349 349 351
314 311 311 312 313 319 321 319 318 319 323 321 320 321 322 323 323 325 323 326 325 325 323 325 326 324 326 328 331 335 341 342 354 351 359 354 367 356 358 360 358 358 357 352 350
315 314 311 313 317 322 322 318 319 319 328 320 320 321 322 322 323 326 324 325 328 323 324 324 326 325 327 330 332 337 338 339 339 343 352 352 355 359 357 359 361 359 358 356 351
316 314 314 313 315 320 319 319 319 321 326 320 320 320 320 321 322 325 324 326 327 329 324 326 326 326 328 332 334 335 336 339 338 336 348 350 351 363 360 361 359 359 357 356 353
317 316 314 317 322 320 320 321 321 322 323 321 320 319 320 320 322 324 324 326 328 331 329 326 327 327 329 332 334 333 338 342 341 339 338 348 350 361 357 353 355 357 354 354 356
316 317 317 320 321 321 322 325 332 329 323 322 320 318 318 319 322 322 325 325 325 329 329 327 331 328 331 333 335 335 338 340 341 338 335 347 361 360 353 350 350 349 350 352 356
316 318 319 323 323 321 324 332 331 326 325 320 320 318 318 325 325 322 323 325 324 328 331 328 330 331 331 332 334 335 337 335 335 334 334 354 358 353 349 349 347 345 346 349 352
317 320 324 321 320 322 325 324 328 322 320 320 320 319 323 325 325 323 324 327 326 326 326 328 332 330 328 329 329 331 332 334 335 338 338 357 357 360 353 350 345 343 343 343 346
318 324 323 320 319 321 329 326 321 320 320 321 325 321 321 322 321 321 324 324 323 323 325 326 329 327 327 326 328 330 330 332 332 333 336 357 359 349 351 347 344 341 338 339 341
320 324 323 319 322 323 325 322 313 320 319 320 323 325 322 322 322 322 323 322 320 321 323 325 326 329 326 325 325 327 329 331 334 337 335 352 357 346 345 343 341 338 335 335 337
325 324 319 318 324 323 321 319 319 319 320 321 321 320 320 321 322 322 322 319 319 320 323 324 325 328 327 325 325 327 328 329 330 332 337 344 355 343 342 341 339 339 335 333 336
324 323 320 318 320 320 319 319 319 316 318 320 321 321 320 322 320 320 321 319 318 319 323 323 322 325 328 328 325 325 327 327 328 331 331 349 350 344 342 340 338 338 336 334 333
324 321 322 323 320 320 319 318 317 318 316 317 320 320 321 322 322 322 320 319 319 318 320 320 322 322 324 325 322 324 324 326 326 328 335 348 348 344 341 340 338 337 335 334 334
323 323 316 319 319 320 314 319 317 315 318 317 317 319 319 322 323 325 323 321 321 321 321 322 323 322 324 322 321 322 323 323 322 323 341 344 346 341 339 338 337 336 334 333 332
320 318 322 314 318 318 320 319 317 316 316 317 317 318 317 321 321 321 322 321 322 322 322 322 323 323 323 322 321 321 321 321 321 322 328 344 342 339 338 338 336 335 332 331 330
Wind_Speed
16 15 14 14 14 13 13 14 14 13 13 13 14 13 14 13 12 9 13 12 17 11 11 12 18 21 19 15 18 14 1 3 3 8 13 6 4 4 4 9 8 5 23 27 30
17 16 16 14 13 13 13 14 14 14 14 13 12 13 11 12 12 21 16 14 9 12 15 18 17 17 13 17 15 5 4 5 6 8 16 12 10 6 3 10 9 20 26 31 29
17 17 17 16 14 14 14 14 15 15 13 12 11 10 10 8 10 7 20 24 15 14 19 19 15 15 17 16 15 11 5 2 8 12 18 17 13 4 6 4 14 23 26 25 26
17 18 17 17 17 15 15 14 16 14 12 10 9 8 9 6 2 5 13 18 13 16 19 20 16 15 16 17 15 5 8 4 16 11 15 16 14 10 7 1 15 21 24 22 20
19 17 17 17 17 17 16 16 16 15 10 8 7 6 5 8 12 5 11 14 14 17 20 17 16 15 16 15 12 6 4 15 14 18 15 11 12 11 5 6 9 20 21 21 18
19 19 17 18 18 17 18 17 16 14 9 6 5 3 5 10 6 7 11 14 16 20 19 18 12 14 16 16 14 7 15 13 17 16 17 15 9 5 5 6 13 16 21 20 18
19 18 19 20 19 18 17 17 13 9 6 6 5 3 9 15 3 6 12 16 19 21 17 16 17 14 6 16 13 8 12 13 21 14 20 18 11 7 4 9 20 22 21 20 18
20 20 20 21 20 18 15 9 8 5 5 6 6 7 7 13 8 9 12 16 19 19 17 15 12 11 16 13 11 18 13 10 25 19 13 14 11 2 6 11 19 24 21 19 18
22 21 20 19 18 14 7 4 2 4 6 7 5 10 9 7 12 12 15 18 18 17 12 11 5 12 14 15 12 13 15 14 15 19 17 1 13 7 10 14 16 22 21 19 16
20 19 16 14 13 11 3 4 5 8 5 5 14 9 13 11 16 14 11 11 13 12 10 6 7 13 15 13 14 18 21 17 16 17 17 15 12 11 11 10 14 20 19 18 14
18 15 13 9 9 7 2 3 5 6 14 11 5 13 11 15 15 13 16 15 14 12 13 15 11 15 19 20 20 21 18 11 7 23 18 13 15 15 12 14 12 17 19 18 16
18 13 8 6 6 5 7 7 8 8 6 20 10 16 11 20 13 13 14 13 15 15 16 11 16 17 20 18 23 23 13 10 13 23 20 16 11 8 8 8 13 16 17 14 9
14 9 6 3 5 6 13 15 7 8 7 13 13 11 5 9 13 16 17 18 15 17 18 17 14 19 17 19 21 21 17 12 12 17 19 16 6 10 7 17 19 12 16 17 17
12 8 4 2 5 14 17 3 8 4 6 15 12 14 14 14 16 20 20 17 11 17 18 19 16 18 17 17 18 17 17 19 22 18 8 13 5 15 19 26 15 16 16 15 17
11 7 3 7 13 12 7 8 8 5 5 12 13 9 10 17 13 14 19 20 17 15 15 18 15 16 17 18 13 18 11 14 19 13 20 19 6 5 3 13 19 20 17 15 18
10 8 6 8 11 12 9 9 7 7 1 6 9 9 14 17 10 17 14 20 14 15 19 15 16 11 11 14 12 21 12 9 6 9 11 21 14 8 3 7 9 20 18 16 15
13 11 11 12 11 9 8 8 6 6 2 6 12 13 15 16 13 14 16 15 13 11 16 17 17 12 14 17 17 15 13 8 10 9 12 20 11 6 14 10 10 12 9 5 2
16 15 15 19 11 9 8 10 6 18 10 13 15 16 14 17 13 13 13 14 19 17 11 13 14 17 13 14 10 13 18 10 14 12 12 18 11 10 19 14 13 6 5 5 10
18 16 12 16 12 4 7 6 5 10 21 5 7 9 12 13 13 14 20 11 18 9 4 14 15 15 6 16 1 16 17 18 15 20 13 9 14 13 18 17 13 7 7 8 10
12 17 25 5 6 7 4 4 14 9 6 8 10 6 6 14 19 9 8 6 11 5 2 13 11 15 10 5 9 14 9 17 14 14 14 11 13 13 16 14 12 11 10 10 11
7 6 13 5 7 6 5 7 3 3 6 7 12 7 6 10 12 5 3 7 4 9 6 16 9 9 15 11 15 11 11 12 17 15 10 11 4 6 17 13 14 12 9 8 10
15 12 9 5 8 7 10 3 2 5 1 4 7 22 7 3 7 3 8 8 4 7 9 12 4 11 13 13 19 16 13 16 12 17 10 7 3 5 11 14 14 12 9 8 8
5 7 6 8 9 6 6 6 8 6 2 3 2 4 7 6 3 6 7 3 3 3 6 10 9 3 8 7 7 8 13 15 12 15 15 5 6 7 14 13 11 13 12 10 9
5 4 5 3 5 7 4 3 5 1 3 5 6 7 5 9 8 5 5 2 1 6 6 6 12 8 5 12 9 17 15 13 13 11 13 8 19 15 15 13 11 13 12 12 11
4 6 6 4 5 7 3 5 1 2 2 4 3 9 10 3 6 5 8 5 4 3 3 4 9 11 4 7 11 14 20 17 10 15 11 17 19 15 13 13 12 12 12 12 11
6 6 1 5 1 6 5 3 2 4 6 2 8 2 8 10 5 8 11 6 6 6 5 2 8 10 10 6 5 10 6 3 5 11 14 18 18 17 15 13 14 12 12 12 12
10 3 6 5 5 6 7 6 5 2 3 6 5 6 4 12 13 14 3 8 9 2 3 4 7 10 11 13 12 10 10 9 8 10 4 14 15 16 17 14 11 9 11 11 11
Wind_Direction
338 336 334 332 330 327 326 322 319 316 314 309 312 317 320 309 291 263 242 228 234 239 218 200 203 216 217 231 233 217 321 333 177 152 141 148 131 37 322 133 110 208 147 138 148
333 332 330 329 327 325 321 319 316 313 309 306 310 318 320 317 291 261 238 234 206 215 200 203 206 208 224 230 236 109 352 267 28 133 149 152 139 135 148 125 128 125 130 143 154
329 327 326 324 323 320 317 316 312 306 303 301 306 317 314 334 279 242 231 216 224 214 205 214 207 211 231 230 227 122 194 238 63 114 147 155 123 70 71 141 132 135 142 154 155
329 326 324 322 320 317 314 312 309 305 297 294 298 310 312 285 311 86 162 195 212 200 216 233 216 212 233 233 244 82 212 118 98 106 168 134 119 94 74 13 123 135 149 152 162
329 326 323 319 319 317 313 310 307 300 289 281 285 306 320 229 255 161 170 194 192 191 213 222 219 213 228 242 233 164 223 125 122 136 114 121 121 117 159 182 131 145 157 158 163
329 327 325 322 318 314 309 306 303 294 276 257 261 282 256 253 83 142 164 172 183 189 214 219 222 222 236 263 235 215 234 133 121 140 135 129 126 119 264 179 173 171 165 165 164
330 329 326 321 316 311 309 311 302 284 252 232 229 238 260 246 355 169 177 185 182 192 214 215 227 232 253 265 244 256 225 162 137 163 139 127 138 139 193 249 162 173 168 167 166
329 325 322 319 315 311 318 312 298 262 213 204 203 225 254 196 248 187 184 185 187 209 226 205 238 269 256 270 231 236 240 211 150 150 149 168 149 161 236 241 164 160 168 164 167
324 321 318 316 313 314 321 16 22 162 178 192 208 219 245 158 205 199 188 184 185 204 225 211 225 239 241 254 230 220 221 207 140 173 129 304 113 178 249 257 171 167 166 163 164
325 319 315 312 313 318 235 305 100 117 147 210 265 213 233 199 188 182 199 184 188 200 198 202 207 229 234 220 217 204 234 165 180 148 126 116 135 172 228 262 188 169 167 164 159
327 323 319 319 318 307 215 254 206 193 211 230 220 234 141 180 164 184 177 187 205 184 203 199 215 211 212 220 241 219 213 195 308 132 112 140 152 182 208 242 185 172 172 164 161
333 333 330 324 311 279 248 253 31 330 258 226 249 232 160 153 163 191 176 191 200 208 212 181 223 225 230 221 236 255 276 149 125 103 109 132 133 163 211 236 228 181 178 161 142
345 340 322 291 260 257 234 286 313 303 263 200 210 229 189 185 198 185 193 210 193 217 209 224 216 234 219 236 226 240 228 150 169 110 118 120 123 146 219 238 252 190 186 155 151
345 337 320 302 271 243 241 315 291 312 272 156 192 212 193 209 233 176 197 211 193 218 222 232 242 197 232 241 224 242 232 146 166 134 154 177 146 189 193 209 235 157 207 178 158
329 324 262 220 308 298 351 298 326 267 273 142 175 139 181 205 195 171 191 227 247 221 222 219 230 211 222 225 213 242 240 178 212 193 124 194 154 208 246 291 181 187 171 185 177
313 305 277 247 247 254 311 292 239 237 288 135 135 193 189 222 171 158 192 233 267 245 234 242 218 228 219 232 227 238 299 183 253 213 188 195 208 165 122 318 139 159 165 177 176
313 280 269 275 285 338 317 262 225 263 277 140 179 189 213 204 181 158 195 202 227 221 216 225 234 210 217 217 230 218 247 204 209 226 248 166 207 141 153 99 35 55 48 13 211
312 281 272 260 277 285 278 261 29 295 345 202 227 183 207 213 180 172 201 214 228 229 199 210 216 192 207 241 224 202 235 208 203 223 228 168 136 126 123 108 87 31 59 10 113
314 283 249 250 232 291 266 72 237 205 268 275 239 217 205 11 308 179 202 221 217 238 31 209 223 187 180 231 281 190 233 249 231 222 226 112 99 128 126 114 121 99 56 36 350
311 280 244 204 244 242 318 328 224 264 293 276 261 201 147 171 237 217 190 53 325 66 283 290 293 154 171 278 279 271 257 241 253 271 253 138 155 150 139 124 101 69 51 23 18
271 261 137 226 233 232 118 247 85 64 317 1 355 316 128 259 255 196 24 152 269 331 247 287 162 204 191 206 231 223 252 257 265 256 238 169 96 90 131 119 103 89 65 32 24
282 267 125 245 243 250 127 0 328 22 300 329 118 269 77 356 340 344 182 43 6 312 297 295 319 188 212 210 219 256 251 233 245 251 273 91 78 64 109 111 103 98 85 61 41
269 260 106 234 262 257 82 85 4 347 346 341 347 297 147 240 128 115 289 39 331 15 7 347 242 151 142 185 235 242 243 271 269 262 273 178 137 136 106 102 110 108 99 81 60
280 245 152 237 319 347 152 166 141 34 337 314 336 296 251 221 186 201 125 84 44 36 324 302 293 360 351 331 303 212 240 242 265 276 276 68 137 141 129 121 126 112 104 97 88
255 4 11 24 65 35 349 14 246 171 218 296 203 278 274 261 257 224 176 134 227 92 291 299 296 302 213 264 319 325 210 234 246 274 336 137 143 143 141 149 135 119 114 103 89
312 347 173 59 66 279 147 55 63 121 326 67 262 269 293 292 49 32 311 187 205 168 255 296 294 306 299 268 267 313 355 17 245 262 113 119 136 139 136 134 144 138 125 111 100
7 337 295 140 208 258 58 86 83 109 18 4 356 281 240 22 359 337 243 5 54 1 260 239 286 274 266 278 266 245 250 254 232 262 160 150 154 145 145 142 139 131 123 111 102